TimePDT,TemperatureF,Dew PointF,Humidity,Sea Level PressureIn,VisibilityMPH,Wind Direction,Wind SpeedMPH,Gust SpeedMPH,PrecipitationIn,Events,Conditions,WindDirDegrees,DateUTC
12:56 AM,37.9,30.0,73,30.10,10.0,Calm,Calm,-,N/A,,Clear,0,2013-10-08 07:56:00
1:56 AM,39.0,30.9,73,30.10,10.0,WSW,8.1,-,N/A,,Clear,250,2013-10-08 08:56:00
2:56 AM,34.0,30.0,85,30.11,10.0,South,8.1,-,N/A,,Clear,190,2013-10-08 09:56:00
3:56 AM,32.0,28.0,85,30.10,10.0,SSE,5.8,-,N/A,,Clear,150,2013-10-08 10:56:00
4:56 AM,33.1,28.9,85,30.09,10.0,South,8.1,-,N/A,,Clear,180,2013-10-08 11:56:00
5:56 AM,30.9,28.0,89,30.09,10.0,SSE,5.8,-,N/A,,Clear,150,2013-10-08 12:56:00
6:56 AM,34.0,28.9,82,30.09,10.0,South,8.1,-,N/A,,Clear,170,2013-10-08 13:56:00
7:56 AM,34.0,30.0,85,30.10,10.0,Calm,Calm,-,N/A,,Clear,0,2013-10-08 14:56:00
8:56 AM,37.0,30.9,79,30.11,10.0,Calm,Calm,-,N/A,,Clear,0,2013-10-08 15:56:00
9:56 AM,43.0,33.1,68,30.07,10.0,South,6.9,-,N/A,,Clear,180,2013-10-08 16:56:00
10:56 AM,48.0,32.0,54,30.04,10.0,Calm,Calm,-,N/A,,Partly Cloudy,0,2013-10-08 17:56:00
11:56 AM,48.9,30.9,50,30.02,10.0,Calm,Calm,-,N/A,,Mostly Cloudy,0,2013-10-08 18:56:00
12:56 PM,48.9,33.1,54,30.01,10.0,North,5.8,-,N/A,,Mostly Cloudy,10,2013-10-08 19:56:00
1:56 PM,50.0,33.1,52,29.98,10.0,NNW,4.6,-,N/A,,Overcast,340,2013-10-08 20:56:00
2:56 PM,48.9,34.0,56,29.98,10.0,NE,5.8,-,N/A,,Overcast,50,2013-10-08 21:56:00
3:56 PM,46.0,37.0,71,29.98,10.0,SSE,6.9,-,N/A,,Overcast,150,2013-10-08 22:56:00
4:56 PM,46.0,36.0,68,29.96,10.0,Calm,Calm,-,N/A,,Overcast,0,2013-10-08 23:56:00
5:56 PM,46.0,37.0,71,29.96,10.0,Calm,Calm,-,0.00,,Overcast,0,2013-10-09 00:56:00
6:56 PM,44.1,37.0,76,29.96,10.0,NW,6.9,-,0.01,Rain,Light Rain,310,2013-10-09 01:56:00
7:37 PM,42.8,37.4,81,29.95,10.0,North,6.9,-,0.00,Rain,Light Rain,350,2013-10-09 02:37:00
7:56 PM,42.1,37.0,82,29.99,8.0,North,5.8,-,0.00,Rain,Light Rain,350,2013-10-09 02:56:00
8:04 PM,42.8,37.4,81,29.95,10.0,North,5.8,-,0.00,Rain,Light Rain,350,2013-10-09 03:04:00
8:56 PM,41.0,36.0,82,29.99,10.0,NNE,4.6,-,0.00,,Overcast,20,2013-10-09 03:56:00
9:06 PM,39.2,35.6,87,29.96,10.0,NE,4.6,-,N/A,,Overcast,40,2013-10-09 04:06:00
9:24 PM,39.2,35.6,87,29.96,10.0,Calm,Calm,-,N/A,,Overcast,0,2013-10-09 04:24:00
9:56 PM,39.0,35.1,86,29.98,10.0,Calm,Calm,-,N/A,,Overcast,0,2013-10-09 04:56:00
10:56 PM,34.0,32.0,92,29.99,10.0,Calm,Calm,-,N/A,,Scattered Clouds,0,2013-10-09 05:56:00
11:56 PM,32.0,30.9,96,29.99,10.0,Calm,Calm,-,N/A,,Mostly Cloudy,0,2013-10-09 06:56:00